User: anonymous   Login
Location: Skalnate Pleso
(49.1889°N, 20.2450°E)
Time: 03:39:25
(UTC+01:00)
Language:

Iridium 45 - Orbit

View from above orbital plane
View from above orbital plane
View from above satellite
View from above satellite

Ground track
Ground track

The orbit data is extracted from the following two-line orbital elements,

1 25104U 97082A   16040.31014391  .00000351  00000-0  11822-3 0  9997
2 25104  86.3994 133.7303 0003509 105.3625 254.7958 14.34217196949585
Epoch (UTC): 09 February 2016 07:26:36
Eccentricity: 0.0003509
inclination: 86.3994°
perigee height: 775 km
apogee height: 780 km
right ascension of ascending node: 133.7303°
argument of perigee: 105.3625°
revolutions per day: 14.34217196
mean anomaly at epoch: 254.7958°
orbit number at epoch: 94958

The dashed part of the orbit path shows where the satellite is in the earth's shadow,  

DLR